Find Starlink 30778

NORAD ID: 58182 Int'l Des: 2023-167 Owner: SPXS Country: US Constellation: starlink operational
LEOCIRCULAR

当前视图

正在加载3D地球...

About Starlink 30778

Starlink 30778 (NORAD 58182) is a starlink constellation satellite (v2 mini) launched Oct 30, 2023 by SPXS of US. It operates in LEO, CIRCULAR orbit with a mass of 730.00 kg.

即将过境

Passes for default location (London). Set your location on the main map for personalized predictions.

高度历史

Loading altitude history...

两行轨道根数

1 58182U 23167H 26229.26155572 .00000083 00000-0 12557-4 0 9992
2 58182 43.0027 316.4712 0001218 271.0753 88.9959 15.27580068155543
Epoch: Aug 17, 2026 • Age: 8 hours

当前状态

高度 490.9 km
远地点 / 近地点 N/A
速度 7.62 km/s
星下点 -31.29°S, 99.68°E
发射日期 Oct 30, 2023
运行时间 2.7 years
类型 internet

技术详情

分类 Payload
质量 730.00 kg
干质量 700.00 kg
总质量 730.00 kg
长度 0.30 m
直径 4.10 m
跨度 29.00 m
形状 Box + pan
制造商 SPXS
平台类型 Starlink V2M
阶段状态 In Orbit
所有者/国家 SPXS/US

Most Searched